Погода в Феринихинге

ЮАР     26°40′38″S   27°55′58″E
темп.,
°C
ветер,
м/с
пор.,
м/с
влажн.,
%
обл.,
%
осадки,
мм/ч
давл.,
гПа
погр.,
м
25 июня, сб
сб2523:00+10св138289 0.8 1025124
02:00+9в598341 1.1 1024240
05:00+9всв4985100 0.2 1025233
08:00+9ююв2280100 0.2 1028143
11:00+14с555489 0.1 1026654
14:00+16зюз544598 0.6 10251432
17:00+14ю22506 0.1 102631
20:00+11юв22605 0.1 102813
26 июня, вс
вс2623:00+10в22685 0.0 102916
02:00+8в46865 0.0 1031104
05:00+7в34925 0.0 103257
08:00+7всв37830 0.0 1035209
11:00+13всв34380 0.0 1033763
14:00+16вюв33240 0.0 10301594
17:00+14вюв35310 0.0 1030113
20:00+10в22390 0.0 103415
27 июня, пн
пн2723:00+9в33420 0.0 103429
02:00+6в33460 0.0 103522
05:00+5в33540 0.0 103622
08:00+5в37580 0.0 1039184
11:00+13всв68330 0.0 1036933
14:00+16в57280 0.0 10321600
17:00+14вюв46362 0.0 1033178
20:00+10в49470 0.0 1035150
28 июня, вт
вт2823:00+8всв47700 0.0 1037135
02:00+6в33830 0.0 103736
05:00+4в33870 0.0 103730
08:00+5в26850 0.0 1038180
11:00+12всв45460 0.0 1035848
14:00+15в34330 0.0 10311480
17:00+13в33380 0.0 103089
20:00+10в22500 0.0 103216
29 июня, ср
ср2923:00+8в33560 0.0 103427
02:00+6всв22680 0.0 103315
05:00+5всв11770 0.0 103312
08:00+6в11700 0.0 103458
11:00+11юв11500 0.0 1032702
14:00+14юв22330 0.0 10281384
17:00+14юв22340 0.0 102870
20:00+10вюв33420 0.0 103021